| time (UTC) | temp C | wind direction | speed KPH | gust KPH | rain 1hr cm | rain 24hr cm | rain mn cm | humidity % | barometer mb |
| 20260504110444 | 13 | 79 | 6.4 | 16.1 | 0.00 | 0.64 | 0.64 | 87 | 1006.0 |
| 20260504100406 | 13 | 127 | 4.8 | 8.0 | 0.00 | 0.64 | 0.64 | 91 | 1006.7 |
| 20260504081800 | 13 | 54 | 0.0 | 0.0 | 0.00 | 0.64 | 0.64 | 95 | 1007.1 |
| 20260504081256 | 13 | 104 | 1.6 | 4.8 | 0.00 | 0.64 | 0.64 | 95 | 1007.3 |
| 20260504080753 | 13 | 28 | 3.2 | 3.2 | 0.00 | 0.64 | 0.64 | 95 | 1007.6 |
| 20260504080249 | 13 | 69 | 1.6 | 1.6 | 0.00 | 0.64 | 0.64 | 94 | 1007.8 |
| 20260504070217 | 13 | 47 | 3.2 | 4.8 | 0.18 | 0.61 | 0.61 | 93 | 1006.8 |
| 20260504060137 | 12 | 83 | 0.0 | 4.8 | 0.05 | 0.20 | 0.20 | 92 | 1007.9 |
| 20260504050605 | 16 | 26 | 4.8 | 6.4 | 0.00 | 0.00 | 0.00 | 66 | 1008.1 |
| 20260504045559 | 16 | 244 | 3.2 | 4.8 | 0.00 | 0.00 | 0.00 | 64 | 1007.8 |
| 20260504045054 | 16 | 127 | 8.0 | 8.0 | 0.00 | 0.00 | 0.00 | 63 | 1007.6 |
| 20260504044552 | 16 | 67 | 4.8 | 8.0 | 0.00 | 0.00 | 0.00 | 63 | 1007.5 |
| 20260504044049 | 16 | 80 | 4.8 | 4.8 | 0.00 | 0.00 | 0.00 | 63 | 1007.2 |
| 20260504043546 | 16 | 50 | 6.4 | 8.0 | 0.00 | 0.00 | 0.00 | 62 | 1007.4 |
| 20260504043043 | 16 | 48 | 6.4 | 6.4 | 0.00 | 0.00 | 0.00 | 61 | 1007.7 |
| 20260504042540 | 16 | 57 | 3.2 | 3.2 | 0.00 | 0.00 | 0.00 | 61 | 1007.7 |
| 20260504042037 | 16 | 87 | 3.2 | 6.4 | 0.00 | 0.00 | 0.00 | 60 | 1008.0 |
| 20260504041533 | 16 | 73 | 1.6 | 3.2 | 0.00 | 0.00 | 0.00 | 61 | 1008.1 |
| 20260504041029 | 16 | 69 | 0.0 | 3.2 | 0.00 | 0.00 | 0.00 | 59 | 1007.9 |
| 20260504040527 | 17 | 103 | 3.2 | 6.4 | 0.00 | 0.00 | 0.00 | 59 | 1008.1 |
| 20260504040024 | 17 | 82 | 1.6 | 6.4 | 0.00 | 0.00 | 0.00 | 59 | 1008.3 |
| 20260504035521 | 17 | 107 | 3.2 | 8.0 | 0.00 | 0.00 | 0.00 | 58 | 1008.1 |
| 20260504035017 | 17 | 104 | 3.2 | 9.7 | 0.00 | 0.00 | 0.00 | 58 | 1008.1 |
| 20260504034515 | 17 | 36 | 3.2 | 8.0 | 0.00 | 0.00 | 0.00 | 58 | 1008.3 |
| 20260504034011 | 17 | 96 | 4.8 | 6.4 | 0.00 | 0.00 | 0.00 | 57 | 1008.1 |
| 20260504033509 | 17 | 35 | 0.0 | 3.2 | 0.00 | 0.00 | 0.00 | 58 | 1008.1 |
| 20260504033007 | 17 | 67 | 3.2 | 8.0 | 0.00 | 0.00 | 0.00 | 56 | 1008.3 |
| 20260504032503 | 17 | 77 | 3.2 | 4.8 | 0.00 | 0.00 | 0.00 | 56 | 1008.4 |
| 20260504032000 | 17 | 87 | 1.6 | 6.4 | 0.00 | 0.00 | 0.00 | 55 | 1008.4 |
| 20260504031456 | 17 | 74 | 1.6 | 4.8 | 0.00 | 0.00 | 0.00 | 55 | 1008.4 |
| 20260504030953 | 18 | 79 | 4.8 | 6.4 | 0.00 | 0.00 | 0.00 | 55 | 1008.5 |
| 20260504030451 | 18 | 38 | 1.6 | 6.4 | 0.00 | 0.00 | 0.00 | 55 | 1008.5 |
| 20260504025946 | 18 | 96 | 3.2 | 6.4 | 0.00 | 0.00 | 0.00 | 54 | 1008.3 |
| 20260504025443 | 18 | 99 | 3.2 | 8.0 | 0.00 | 0.00 | 0.00 | 53 | 1008.4 |
| 20260504024940 | 18 | 104 | 6.4 | 12.9 | 0.00 | 0.00 | 0.00 | 54 | 1008.4 |
| 20260504024437 | 18 | 269 | 0.0 | 6.4 | 0.00 | 0.00 | 0.00 | 54 | 1008.4 |
| 20260504023934 | 18 | 89 | 4.8 | 9.7 | 0.00 | 0.00 | 0.00 | 53 | 1008.4 |
| 20260504023431 | 18 | 83 | 6.4 | 8.0 | 0.00 | 0.00 | 0.00 | 52 | 1008.6 |
| 20260504022926 | 18 | 94 | 6.4 | 6.4 | 0.00 | 0.00 | 0.00 | 53 | 1008.6 |
| 20260504022423 | 18 | 4 | 3.2 | 11.3 | 0.00 | 0.00 | 0.00 | 52 | 1008.7 |
| 20260504021920 | 18 | 287 | 0.0 | 8.0 | 0.00 | 0.00 | 0.00 | 52 | 1008.4 |
| 20260504021417 | 18 | 281 | 3.2 | 9.7 | 0.00 | 0.00 | 0.00 | 53 | 1008.3 |
| 20260504020914 | 18 | 76 | 1.6 | 6.4 | 0.00 | 0.00 | 0.00 | 54 | 1008.2 |
| 20260504020411 | 18 | 96 | 3.2 | 6.4 | 0.00 | 0.00 | 0.00 | 52 | 1008.2 |
| 20260504015907 | 18 | 69 | 4.8 | 4.8 | 0.00 | 0.00 | 0.00 | 52 | 1008.3 |
| 20260504015403 | 18 | 77 | 4.8 | 4.8 | 0.00 | 0.00 | 0.00 | 51 | 1008.3 |
| 20260504014859 | 19 | 80 | 3.2 | 3.2 | 0.00 | 0.00 | 0.00 | 51 | 1008.2 |
| 20260504014355 | 19 | 60 | 3.2 | 6.4 | 0.00 | 0.00 | 0.00 | 50 | 1008.4 |
| 20260504013853 | 19 | 91 | 1.6 | 6.4 | 0.00 | 0.00 | 0.00 | 50 | 1008.1 |
| 20260504013351 | 19 | 112 | 4.8 | 8.0 | 0.00 | 0.00 | 0.00 | 50 | 1008.0 |
| 20260504012847 | 19 | 99 | 12.9 | 14.5 | 0.00 | 0.00 | 0.00 | 51 | 1008.1 |
| 20260504012345 | 19 | 83 | 4.8 | 11.3 | 0.00 | 0.00 | 0.00 | 50 | 1007.9 |
| 20260504011842 | 19 | 77 | 3.2 | 6.4 | 0.00 | 0.00 | 0.00 | 50 | 1008.1 |
| 20260504011339 | 19 | 74 | 3.2 | 4.8 | 0.00 | 0.00 | 0.00 | 49 | 1008.1 |
| 20260504010835 | 20 | 95 | 3.2 | 4.8 | 0.00 | 0.00 | 0.00 | 49 | 1008.0 |
| 20260504010330 | 20 | 117 | 3.2 | 9.7 | 0.00 | 0.00 | 0.00 | 47 | 1007.9 |
| 20260504005827 | 20 | 105 | 3.2 | 9.7 | 0.00 | 0.00 | 0.00 | 48 | 1008.0 |
| 20260504005324 | 20 | 93 | 3.2 | 9.7 | 0.00 | 0.00 | 0.00 | 47 | 1007.9 |
| 20260504004822 | 20 | 77 | 3.2 | 6.4 | 0.00 | 0.00 | 0.00 | 47 | 1007.9 |
| 20260504004319 | 20 | 110 | 3.2 | 9.7 | 0.00 | 0.00 | 0.00 | 47 | 1007.8 |
| 20260504003815 | 20 | 72 | 8.0 | 11.3 | 0.00 | 0.00 | 0.00 | 47 | 1008.0 |
| 20260504003312 | 20 | 115 | 4.8 | 8.0 | 0.00 | 0.00 | 0.00 | 47 | 1007.8 |
| 20260504002808 | 20 | 41 | 3.2 | 9.7 | 0.00 | 0.00 | 0.00 | 47 | 1007.6 |
| 20260504002306 | 20 | 82 | 4.8 | 11.3 | 0.00 | 0.00 | 0.00 | 47 | 1007.7 |
| 20260504001804 | 20 | 105 | 4.8 | 8.0 | 0.00 | 0.00 | 0.00 | 46 | 1007.8 |
| 20260504001300 | 20 | 102 | 3.2 | 9.7 | 0.00 | 0.00 | 0.00 | 46 | 1008.0 |
| 20260504000757 | 20 | 118 | 6.4 | 9.7 | 0.00 | 0.00 | 0.00 | 46 | 1007.9 |
| 20260504000254 | 20 | 106 | 6.4 | 8.0 | 0.00 | 0.00 | 0.00 | 46 | 1008.1 |
| 20260503235752 | 21 | 106 | 6.4 | 9.7 | 0.00 | 0.00 | 0.00 | 45 | 1008.0 |
| 20260503235249 | 21 | 145 | 6.4 | 8.0 | 0.00 | 0.00 | 0.00 | 44 | 1008.0 |
| 20260503234747 | 21 | 67 | 4.8 | 8.0 | 0.00 | 0.00 | 0.00 | 45 | 1007.9 |
| 20260503234245 | 21 | 72 | 3.2 | 6.4 | 0.00 | 0.00 | 0.00 | 44 | 1008.0 |
| 20260503233741 | 21 | 119 | 3.2 | 14.5 | 0.00 | 0.00 | 0.00 | 43 | 1008.0 |
| 20260503233238 | 21 | 112 | 3.2 | 12.9 | 0.00 | 0.00 | 0.00 | 43 | 1007.9 |
| 20260503232735 | 21 | 110 | 4.8 | 9.7 | 0.00 | 0.00 | 0.00 | 42 | 1008.4 |
| 20260503232232 | 21 | 49 | 9.7 | 9.7 | 0.00 | 0.00 | 0.00 | 42 | 1008.3 |
| 20260503231730 | 21 | 114 | 3.2 | 6.4 | 0.00 | 0.00 | 0.00 | 41 | 1008.2 |
| 20260503231226 | 22 | 110 | 3.2 | 8.0 | 0.00 | 0.00 | 0.00 | 42 | 1007.9 |
| 20260503230722 | 22 | 74 | 1.6 | 14.5 | 0.00 | 0.00 | 0.00 | 40 | 1008.4 |
| 20260503230220 | 22 | 302 | 4.8 | 6.4 | 0.00 | 0.00 | 0.00 | 40 | 1008.7 |
| 20260503225717 | 22 | 109 | 14.5 | 16.1 | 0.00 | 0.00 | 0.00 | 38 | 1008.5 |
| 20260503225217 | 22 | 86 | 8.0 | 9.7 | 0.00 | 0.00 | 0.00 | 38 | 1008.7 |
| 20260503224715 | 23 | 225 | 4.8 | 12.9 | 0.00 | 0.00 | 0.00 | 37 | 1008.8 |
| 20260503224213 | 23 | 359 | 1.6 | 14.5 | 0.00 | 0.00 | 0.00 | 41 | 1008.6 |
| 20260503223710 | 23 | 158 | 0.0 | 9.7 | 0.00 | 0.00 | 0.00 | 42 | 1008.9 |
| 20260503223207 | 23 | 276 | 4.8 | 11.3 | 0.00 | 0.00 | 0.00 | 39 | 1009.0 |
| 20260503222703 | 23 | 355 | 4.8 | 14.5 | 0.00 | 0.00 | 0.00 | 38 | 1009.1 |
| 20260503222201 | 22 | 121 | 4.8 | 12.9 | 0.00 | 0.00 | 0.00 | 37 | 1008.7 |
| 20260503221700 | 22 | 67 | 6.4 | 14.5 | 0.00 | 0.00 | 0.00 | 37 | 1009.3 |
| 20260503221156 | 23 | 87 | 3.2 | 14.5 | 0.00 | 0.00 | 0.00 | 37 | 1009.0 |
| 20260503220653 | 23 | 119 | 9.7 | 17.7 | 0.00 | 0.00 | 0.00 | 37 | 1008.9 |
| 20260503220150 | 22 | 264 | 8.0 | 16.1 | 0.00 | 0.00 | 0.00 | 37 | 1009.1 |
| 20260503215647 | 22 | 93 | 9.7 | 22.5 | 0.00 | 0.00 | 0.00 | 37 | 1009.1 |
| 20260503215143 | 22 | 36 | 11.3 | 22.5 | 0.00 | 0.00 | 0.00 | 36 | 1008.9 |
| 20260503214642 | 22 | 282 | 4.8 | 19.3 | 0.00 | 0.00 | 0.00 | 38 | 1009.0 |
| 20260503214138 | 22 | 38 | 4.8 | 19.3 | 0.00 | 0.00 | 0.00 | 40 | 1008.9 |
| 20260503213637 | 22 | 216 | 14.5 | 20.9 | 0.00 | 0.00 | 0.00 | 37 | 1008.9 |
| 20260503213133 | 22 | 215 | 3.2 | 12.9 | 0.00 | 0.00 | 0.00 | 38 | 1008.8 |
| 20260503212631 | 22 | 57 | 3.2 | 11.3 | 0.00 | 0.00 | 0.00 | 38 | 1009.0 |
| 20260503212129 | 22 | 218 | 9.7 | 9.7 | 0.00 | 0.00 | 0.00 | 37 | 1009.4 |
| 20260503211626 | 22 | 250 | 4.8 | 22.5 | 0.00 | 0.00 | 0.00 | 36 | 1009.6 |
| 20260503211121 | 21 | 268 | 6.4 | 27.4 | 0.00 | 0.00 | 0.00 | 38 | 1009.6 |
| 20260503210618 | 22 | 119 | 17.7 | 19.3 | 0.00 | 0.00 | 0.00 | 36 | 1009.5 |
| 20260503210115 | 22 | 212 | 9.7 | 14.5 | 0.00 | 0.00 | 0.00 | 36 | 1009.4 |
| 20260503205611 | 21 | 254 | 3.2 | 9.7 | 0.00 | 0.00 | 0.00 | 40 | 1009.5 |
| 20260503205107 | 21 | 114 | 8.0 | 20.9 | 0.00 | 0.00 | 0.00 | 39 | 1009.4 |
| 20260503204604 | 21 | 303 | 9.7 | 24.1 | 0.00 | 0.00 | 0.00 | 38 | 1009.4 |
| 20260503204101 | 21 | 97 | 8.0 | 22.5 | 0.00 | 0.00 | 0.00 | 37 | 1009.3 |
| 20260503203558 | 21 | 61 | 8.0 | 20.9 | 0.00 | 0.00 | 0.00 | 38 | 1009.7 |
| 20260503203055 | 21 | 87 | 11.3 | 17.7 | 0.00 | 0.00 | 0.00 | 37 | 1009.8 |
| 20260503202553 | 21 | 116 | 24.1 | 24.1 | 0.00 | 0.00 | 0.00 | 37 | 1009.8 |
| 20260503202051 | 21 | 112 | 24.1 | 25.7 | 0.00 | 0.00 | 0.00 | 35 | 1009.6 |
| 20260503201549 | 21 | 93 | 3.2 | 12.9 | 0.00 | 0.00 | 0.00 | 38 | 1009.8 |
| 20260503201046 | 21 | 244 | 9.7 | 29.0 | 0.00 | 0.00 | 0.00 | 37 | 1009.9 |
| 20260503200541 | 21 | 332 | 4.8 | 17.7 | 0.00 | 0.00 | 0.00 | 40 | 1010.1 |
| 20260503200038 | 20 | 108 | 14.5 | 30.6 | 0.00 | 0.00 | 0.00 | 38 | 1010.2 |
| 20260503195536 | 21 | 238 | 12.9 | 17.7 | 0.00 | 0.00 | 0.00 | 37 | 1010.5 |
| 20260503195032 | 21 | 114 | 6.4 | 12.9 | 0.00 | 0.00 | 0.00 | 38 | 1010.5 |
| 20260503194529 | 21 | 255 | 11.3 | 22.5 | 0.00 | 0.00 | 0.00 | 38 | 1010.6 |
| 20260503194029 | 20 | 217 | 1.6 | 12.9 | 0.00 | 0.00 | 0.00 | 37 | 1010.7 |
| 20260503193527 | 20 | 301 | 8.0 | 22.5 | 0.00 | 0.00 | 0.00 | 37 | 1011.0 |
| 20260503193021 | 21 | 33 | 6.4 | 20.9 | 0.00 | 0.00 | 0.00 | 36 | 1011.3 |
| 20260503192518 | 20 | 105 | 9.7 | 22.5 | 0.00 | 0.00 | 0.00 | 38 | 1011.2 |
| 20260503192014 | 20 | 241 | 4.8 | 12.9 | 0.00 | 0.00 | 0.00 | 38 | 1011.2 |
| 20260503191511 | 20 | 274 | 8.0 | 29.0 | 0.00 | 0.00 | 0.00 | 39 | 1011.9 |
| 20260503191008 | 20 | 91 | 4.8 | 25.7 | 0.00 | 0.00 | 0.00 | 39 | 1012.0 |
| 20260503190505 | 20 | 300 | 6.4 | 24.1 | 0.00 | 0.00 | 0.00 | 41 | 1012.2 |
| 20260503190002 | 20 | 359 | 4.8 | 12.9 | 0.00 | 0.00 | 0.00 | 43 | 1012.3 |
| 20260503185458 | 20 | 144 | 9.7 | 16.1 | 0.00 | 0.00 | 0.00 | 38 | 1012.2 |
| 20260503184957 | 20 | 137 | 3.2 | 14.5 | 0.00 | 0.00 | 0.00 | 39 | 1012.4 |
| 20260503184454 | 20 | 95 | 3.2 | 24.1 | 0.00 | 0.00 | 0.00 | 40 | 1012.6 |
| 20260503183951 | 20 | 228 | 12.9 | 17.7 | 0.00 | 0.00 | 0.00 | 42 | 1012.9 |
| 20260503183447 | 20 | 265 | 8.0 | 30.6 | 0.00 | 0.00 | 0.00 | 41 | 1012.9 |
| 20260503182944 | 19 | 185 | 3.2 | 24.1 | 0.00 | 0.00 | 0.00 | 43 | 1012.8 |
| 20260503182443 | 20 | 101 | 3.2 | 16.1 | 0.00 | 0.00 | 0.00 | 42 | 1013.0 |
| 20260503181940 | 20 | 223 | 4.8 | 20.9 | 0.00 | 0.00 | 0.00 | 45 | 1013.1 |
| 20260503181437 | 20 | 291 | 11.3 | 16.1 | 0.00 | 0.00 | 0.00 | 42 | 1013.5 |
| 20260503180933 | 20 | 359 | 9.7 | 22.5 | 0.00 | 0.00 | 0.00 | 42 | 1013.6 |
| 20260503180431 | 20 | 159 | 0.0 | 17.7 | 0.00 | 0.00 | 0.00 | 41 | 1013.8 |
| 20260503175928 | 19 | 84 | 1.6 | 9.7 | 0.00 | 0.00 | 0.00 | 43 | 1014.1 |
| 20260503175426 | 19 | 204 | 8.0 | 14.5 | 0.00 | 0.00 | 0.00 | 42 | 1014.2 |
| 20260503174922 | 19 | 34 | 11.3 | 14.5 | 0.00 | 0.00 | 0.00 | 44 | 1014.6 |
| 20260503174420 | 19 | 212 | 6.4 | 12.9 | 0.00 | 0.00 | 0.00 | 42 | 1014.8 |
| 20260503173920 | 18 | 267 | 6.4 | 16.1 | 0.00 | 0.00 | 0.00 | 45 | 1014.6 |
| 20260503173417 | 18 | 22 | 6.4 | 20.9 | 0.00 | 0.00 | 0.00 | 47 | 1014.7 |
| 20260503172913 | 18 | 110 | 6.4 | 22.5 | 0.00 | 0.00 | 0.00 | 48 | 1014.9 |
| 20260503172411 | 18 | 126 | 8.0 | 20.9 | 0.00 | 0.00 | 0.00 | 45 | 1014.7 |
| 20260503171907 | 18 | 119 | 11.3 | 25.7 | 0.00 | 0.00 | 0.00 | 43 | 1015.0 |
| 20260503171404 | 18 | 87 | 8.0 | 14.5 | 0.00 | 0.00 | 0.00 | 49 | 1014.9 |
| 20260503170901 | 18 | 1 | 9.7 | 14.5 | 0.00 | 0.00 | 0.00 | 44 | 1014.7 |
| 20260503170357 | 17 | 254 | 4.8 | 22.5 | 0.00 | 0.00 | 0.00 | 46 | 1014.7 |
| 20260503150750 | 15 | 76 | 14.5 | 19.3 | 0.00 | 0.00 | 0.00 | 54 | 1016.7 |
| 20260503150246 | 15 | 145 | 4.8 | 22.5 | 0.00 | 0.00 | 0.00 | 54 | 1016.9 |
| 20260503140210 | 12 | 228 | 4.8 | 14.5 | 0.00 | 0.00 | 0.00 | 65 | 1017.2 |
| 20260503131140 | 10 | 154 | 4.8 | 12.9 | 0.00 | 0.00 | 0.00 | 71 | 1017.9 |
| 20260503130637 | 10 | 74 | 4.8 | 22.5 | 0.00 | 0.00 | 0.00 | 72 | 1017.6 |
| 20260503130135 | 10 | 64 | 4.8 | 6.4 | 0.00 | 0.00 | 0.00 | 73 | 1017.9 |